Terminal Aerodrome Forecast
Issued by NWS Bismarck, ND

Home | Current Version | Previous Version | Graphics & Text | Print | Product List | Glossary On
Versions: 1 2 3 4 5 6 7 8 9 10 11 12 13 14
000
FTUS43 KBIS 292320
TAFBIS
TAF
KBIS 292320Z 3000/3024 30015G20KT P6SM FEW080
     FM300100 30011KT P6SM SKC
     FM300400 27004KT P6SM SKC
     FM301600 28011KT P6SM FEW090=

USA.gov is the U.S. government's official web portal to all federal, state and local government web resources and services.